Weather History for Volk, WI

Change the Weather History Date:

Friday, December 7, 2012

  Actual Average Record
Temperature  
Mean Temperature 32 °F -  
Max Temperature 36 °F 34 °F 41 °F (1999)
Min Temperature 28 °F 22 °F -7 °F (2008)
Degree Days  
Heating Degree Days 33    
Moisture  
Dew Point 24 °F    
Average Humidity 74    
Maximum Humidity 83    
Minimum Humidity 60    
Precipitation  
Precipitation 0.00 in - - ()
Sea Level Pressure  
Sea Level Pressure 30.00 in    
Wind  
Wind Speed 7 mph (NNW)    
Max Wind Speed 9 mph    
Max Gust Speed -    
Visibility 10 miles    
Events      
Averages and records for this station are not official NWS values.
T = Trace of Precipitation, MM = Missing Value Source: NWS Daily Summary

Daily Weather History Graph

Daily Weather History Graph

Search for Another Location

Airport:

Trip Planner

Search our weather history database for the weather conditions in past years. The results will help you decide how hot, cold, wet, or windy it might be!

Date:

Astronomy

Dec. 07, 2012 Rise Set
Actual Time 7:22 AM CST 4:23 PM CST
Civil Twilight 6:49 AM CST 4:55 PM CST
Nautical Twilight 6:13 AM CST 5:32 PM CST
Astronomical Twilight 5:38 AM CST 6:07 PM CST
Moon 12:30 AM CST (12/7) 12:30 PM CST (12/7)
Length of Visible Light 10h 06m
Length of Day
9h 00m
Last Quarter, 38% of the Moon is Illuminated
Dec 7
Last Quarter
Dec 13
New
Dec 19
First Quarter
Dec 28
Full
Jan 4
Last Quarter

Hourly Weather History & Observations

Time (CST) Temp. Windchill Dew Point Humidity Pressure Visibility Wind Dir Wind Speed Gust Speed Precip Events Conditions
12:55 AM 36.3 °F 29.5 °F 28.6 °F 74% 29.95 in 10.0 mi NW 9.2 mph - N/A   Overcast
1:55 AM 35.1 °F 27.9 °F 27.7 °F 74% 29.96 in 10.0 mi WNW 9.2 mph - N/A   Overcast
2:55 AM 33.4 °F 28.1 °F 27.1 °F 78% 29.98 in 10.0 mi NW 5.8 mph - N/A   Mostly Cloudy
3:55 AM 33.3 °F 27.1 °F 26.8 °F 77% 29.99 in 10.0 mi NW 6.9 mph - N/A   Overcast
4:55 AM 32.2 °F 26.7 °F 26.4 °F 79% 30.00 in 10.0 mi NW 5.8 mph - N/A   Overcast
5:55 AM 29.8 °F 23.0 °F 25.3 °F 83% 30.00 in 10.0 mi NW 6.9 mph - N/A   Overcast
6:55 AM 30.0 °F 22.4 °F 25.2 °F 82% 30.01 in 10.0 mi NNW 8.1 mph - N/A   Overcast
7:55 AM 30.2 °F 23.4 °F 24.8 °F 80% 30.02 in 10.0 mi NW 6.9 mph - N/A   Overcast
8:55 AM 30.2 °F 22.6 °F 24.8 °F 80% 30.02 in 10.0 mi NNW 8.1 mph - N/A   Mostly Cloudy
9:55 AM 32.0 °F 26.4 °F 24.8 °F 75% 30.04 in 10.0 mi NW 5.8 mph - N/A   Mostly Cloudy
10:55 AM 33.8 °F 30.8 °F 24.8 °F 70% 30.02 in 10.0 mi North 3.5 mph - N/A   Mostly Cloudy
11:55 AM 35.6 °F 29.9 °F 24.8 °F 65% 29.99 in 10.0 mi North 6.9 mph - N/A   Mostly Cloudy
12:55 PM 35.6 °F 29.9 °F 23.0 °F 60% 29.99 in 10.0 mi NNW 6.9 mph - N/A   Mostly Cloudy
1:55 PM 35.6 °F 31.7 °F 23.0 °F 60% 29.97 in 10.0 mi NW 4.6 mph - N/A   Mostly Cloudy
2:55 PM 35.2 °F 30.3 °F 23.0 °F 61% 29.98 in 10.0 mi NNW 5.8 mph - N/A   Overcast
3:55 PM 34.3 °F 29.2 °F 22.5 °F 62% 29.99 in 10.0 mi NNW 5.8 mph - N/A   Overcast
4:55 PM 32.9 °F 29.8 °F 21.9 °F 64% 30.01 in 10.0 mi NW 3.5 mph - N/A   Overcast
5:55 PM 28.6 °F 22.4 °F 21.7 °F 76% 30.01 in 10.0 mi NNW 5.8 mph - N/A   Overcast
6:55 PM 28.8 °F 22.6 °F 22.5 °F 77% 30.03 in 10.0 mi NW 5.8 mph - N/A   Mostly Cloudy
7:55 PM 29.8 °F 23.0 °F 23.5 °F 77% 30.01 in 10.0 mi North 6.9 mph - N/A   Mostly Cloudy
8:55 PM 29.8 °F 24.9 °F 23.5 °F 77% 30.01 in 10.0 mi North 4.6 mph - N/A   Scattered Clouds
9:55 PM 29.8 °F 26.3 °F 23.5 °F 77% 30.02 in 10.0 mi North 3.5 mph - N/A   Partly Cloudy
10:55 PM 29.7 °F 23.7 °F 23.7 °F 79% 30.02 in 10.0 mi North 5.8 mph - N/A   Scattered Clouds
11:55 PM 29.3 °F 25.6 °F 23.5 °F 79% 30.02 in 10.0 mi NNW 3.5 mph - N/A   Mostly Cloudy